Private Wetterstation Wechselburg
Wetterdaten: Montag, 05.07.2021
Datum Zeit Temp. +2m Bodentemp. Temp.+5cm Temp. Wind Windchill X Diff Temp. Feuchte +2m Feuchte +5cm Luftdruck Regen Wind Richtung Richtung Sonnenschein Taupunkt Windchill Windben
05.07.2021 00:00 18,0 C 19,3 C 17,4 C 17,7 C 17,0 C 0,0 C 83 % 87 % 1010,1 hPa 0,0 l/m 0,0 km/h (0 Bft) O-NO 67 0 min 15,1 C 17,0 C 0,0 km/h (0 Bft)
05.07.2021 00:05 18,0 C 19,3 C 17,3 C 17,7 C 17,0 C 0,0 C 83 % 87 % 1010,1 hPa 0,0 l/m 0,0 km/h (0 Bft) O-NO 67 0 min 15,1 C 17,0 C 0,0 km/h (0 Bft)
05.07.2021 00:11 17,9 C 19,3 C 17,3 C 17,6 C 16,9 C 0,0 C 83 % 87 % 1010,1 hPa 0,0 l/m 0,0 km/h (0 Bft) N 0 0 min 15,0 C 16,9 C 0,0 km/h (0 Bft)
05.07.2021 00:15 17,9 C 19,3 C 17,3 C 17,5 C 16,8 C 0,0 C 83 % 87 % 1009,9 hPa 0,0 l/m 0,0 km/h (0 Bft) O-NO 67 0 min 15,0 C 16,8 C 0,0 km/h (0 Bft)
05.07.2021 00:22 17,9 C 19,3 C 17,3 C 17,6 C 16,9 C 0,0 C 83 % 87 % 1009,9 hPa 0,0 l/m 0,0 km/h (0 Bft) O-NO 67 0 min 15,0 C 16,9 C 0,0 km/h (0 Bft)
05.07.2021 00:23 17,9 C 19,3 C 17,3 C 17,6 C 16,9 C 0,0 C 83 % 87 % 1009,9 hPa 0,0 l/m 0,0 km/h (0 Bft) O-NO 67 0 min 15,0 C 16,9 C 0,0 km/h (0 Bft)
05.07.2021 00:24 17,7 C 19,3 C 17,2 C 17,4 C 16,9 C 0,0 C 84 % 87 % 1009,9 hPa 0,0 l/m 0,0 km/h (0 Bft) O-NO 67 0 min 15,0 C 16,9 C 0,0 km/h (0 Bft)
05.07.2021 00:25 17,7 C 19,3 C 17,2 C 17,4 C 16,9 C 0,0 C 84 % 87 % 1009,9 hPa 0,0 l/m 0,0 km/h (0 Bft) O-NO 67 0 min 15,0 C 16,9 C 0,0 km/h (0 Bft)
05.07.2021 00:26 17,7 C 19,3 C 17,2 C 17,4 C 16,9 C 0,0 C 84 % 87 % 1009,9 hPa 0,0 l/m 0,0 km/h (0 Bft) O-NO 67 0 min 15,0 C 16,9 C 0,0 km/h (0 Bft)
05.07.2021 00:28 17,5 C 19,2 C 17,0 C 17,3 C 16,8 C 0,0 C 85 % 88 % 1009,8 hPa 0,0 l/m 0,0 km/h (0 Bft) O-NO 67 0 min 14,9 C 16,8 C 0,0 km/h (0 Bft)
05.07.2021 00:33 17,3 C 19,2 C 17,0 C 17,1 C 16,8 C 0,0 C 85 % 88 % 1009,9 hPa 0,0 l/m 0,0 km/h (0 Bft) O-NO 67 0 min 14,8 C 16,8 C 0,0 km/h (0 Bft)
05.07.2021 00:38 17,3 C 19,2 C 17,0 C 17,1 C 16,7 C 0,0 C 85 % 88 % 1009,9 hPa 0,0 l/m 0,0 km/h (0 Bft) O-NO 67 0 min 14,8 C 16,7 C 0,0 km/h (0 Bft)
05.07.2021 00:43 17,3 C 19,2 C 16,9 C 17,1 C 16,6 C 0,0 C 86 % 88 % 1009,9 hPa 0,0 l/m 0,0 km/h (0 Bft) O-NO 67 0 min 14,9 C 16,6 C 0,0 km/h (0 Bft)
05.07.2021 00:48 17,2 C 19,3 C 16,9 C 16,9 C 16,4 C 0,0 C 85 % 88 % 1009,9 hPa 0,0 l/m 0,0 km/h (0 Bft) O-NO 67 0 min 14,7 C 16,4 C 0,0 km/h (0 Bft)
05.07.2021 00:53 17,2 C 19,3 C 16,8 C 16,9 C 16,4 C 0,0 C 86 % 88 % 1010,1 hPa 0,0 l/m 0,0 km/h (0 Bft) O-NO 67 0 min 14,8 C 16,4 C 0,0 km/h (0 Bft)
05.07.2021 00:58 17,2 C 19,2 C 16,7 C 16,9 C 16,4 C 0,0 C 86 % 88 % 1010,1 hPa 0,0 l/m 0,0 km/h (0 Bft) O-NO 67 0 min 14,8 C 16,4 C 0,0 km/h (0 Bft)
05.07.2021 01:03 17,1 C 19,2 C 16,7 C 16,9 C 16,4 C 0,0 C 86 % 88 % 1010,1 hPa 0,0 l/m 0,0 km/h (0 Bft) O-NO 67 0 min 14,7 C 16,4 C 0,0 km/h (0 Bft)
05.07.2021 01:08 17,1 C 19,2 C 16,7 C 16,9 C 16,4 C 0,0 C 86 % 88 % 1010,1 hPa 0,0 l/m 0,0 km/h (0 Bft) O-NO 67 0 min 14,7 C 16,4 C 0,0 km/h (0 Bft)
05.07.2021 01:13 17,0 C 19,2 C 16,7 C 16,8 C 16,4 C 0,0 C 86 % 88 % 1009,9 hPa 0,0 l/m 0,0 km/h (0 Bft) O-NO 67 0 min 14,6 C 16,4 C 0,0 km/h (0 Bft)
05.07.2021 01:18 17,1 C 19,2 C 16,7 C 16,9 C 16,4 C 0,0 C 86 % 88 % 1009,9 hPa 0,0 l/m 0,0 km/h (0 Bft) O-NO 67 0 min 14,7 C 16,4 C 0,0 km/h (0 Bft)
05.07.2021 01:23 17,1 C 19,2 C 16,7 C 16,9 C 16,5 C 0,0 C 86 % 88 % 1009,9 hPa 0,0 l/m 0,0 km/h (0 Bft) O-NO 67 0 min 14,7 C 16,5 C 0,0 km/h (0 Bft)
05.07.2021 01:28 17,1 C 19,2 C 16,7 C 16,9 C 16,6 C 0,0 C 86 % 88 % 1009,9 hPa 0,0 l/m 0,0 km/h (0 Bft) O-NO 67 0 min 14,7 C 16,6 C 0,0 km/h (0 Bft)
05.07.2021 01:33 17,1 C 19,2 C 16,7 C 16,9 C 16,6 C 0,0 C 86 % 88 % 1010,4 hPa 0,0 l/m 0,0 km/h (0 Bft) O-NO 67 0 min 14,7 C 16,6 C 0,0 km/h (0 Bft)
05.07.2021 01:38 17,1 C 19,2 C 16,7 C 16,9 C 16,6 C 0,0 C 86 % 88 % 1010,4 hPa 0,0 l/m 0,0 km/h (0 Bft) O-NO 67 0 min 14,7 C 16,6 C 0,0 km/h (0 Bft)
05.07.2021 01:43 17,0 C 19,2 C 16,7 C 16,9 C 16,6 C 0,0 C 86 % 88 % 1010,4 hPa 0,0 l/m 0,0 km/h (0 Bft) O-NO 67 0 min 14,6 C 16,6 C 0,0 km/h (0 Bft)
05.07.2021 01:48 16,9 C 19,2 C 16,7 C 16,8 C 16,5 C 0,0 C 86 % 88 % 1010,4 hPa 0,0 l/m 0,0 km/h (0 Bft) O-NO 67 0 min 14,5 C 16,5 C 0,0 km/h (0 Bft)
05.07.2021 01:53 16,9 C 19,2 C 16,6 C 16,8 C 16,5 C 0,0 C 86 % 89 % 1010,2 hPa 0,0 l/m 0,0 km/h (0 Bft) O-NO 67 0 min 14,5 C 16,5 C 0,0 km/h (0 Bft)
05.07.2021 01:58 16,9 C 19,3 C 16,6 C 16,8 C 16,5 C 0,0 C 86 % 89 % 1010,2 hPa 0,0 l/m 0,0 km/h (0 Bft) O-NO 67 0 min 14,5 C 16,5 C 0,0 km/h (0 Bft)
05.07.2021 02:03 16,8 C 19,2 C 16,6 C 16,7 C 16,5 C 0,0 C 86 % 89 % 1010,2 hPa 0,0 l/m 0,0 km/h (0 Bft) O-NO 67 0 min 14,4 C 16,5 C 0,0 km/h (0 Bft)
05.07.2021 02:08 16,8 C 19,2 C 16,6 C 16,7 C 16,5 C 0,0 C 86 % 89 % 1010,2 hPa 0,0 l/m 0,0 km/h (0 Bft) O-NO 67 0 min 14,4 C 16,5 C 0,0 km/h (0 Bft)
05.07.2021 02:13 16,8 C 19,1 C 16,7 C 16,7 C 16,6 C 0,0 C 86 % 89 % 1010,2 hPa 0,0 l/m 0,0 km/h (0 Bft) O-NO 67 0 min 14,4 C 16,6 C 0,0 km/h (0 Bft)
05.07.2021 02:18 16,8 C 19,1 C 16,7 C 16,8 C 16,7 C 0,0 C 86 % 89 % 1010,2 hPa 0,0 l/m 0,0 km/h (0 Bft) O-NO 67 0 min 14,4 C 16,7 C 0,0 km/h (0 Bft)
05.07.2021 02:23 16,8 C 19,1 C 16,7 C 16,8 C 16,8 C 0,0 C 86 % 89 % 1010,2 hPa 0,0 l/m 0,0 km/h (0 Bft) O-NO 67 0 min 14,4 C 16,8 C 0,0 km/h (0 Bft)
05.07.2021 02:28 16,8 C 19,1 C 16,7 C 16,8 C 16,8 C 0,0 C 86 % 89 % 1010,2 hPa 0,0 l/m 0,0 km/h (0 Bft) O-NO 67 0 min 14,4 C 16,8 C 0,0 km/h (0 Bft)
05.07.2021 02:33 16,8 C 19,1 C 16,8 C 17,0 C 17,0 C 0,2 C 86 % 89 % 1010,4 hPa 0,0 l/m 0,0 km/h (0 Bft) O-NO 67 0 min 14,4 C 17,0 C 0,0 km/h (0 Bft)
05.07.2021 02:38 16,8 C 19,1 C 16,8 C 17,0 C 17,0 C 0,2 C 86 % 89 % 1010,4 hPa 0,0 l/m 0,0 km/h (0 Bft) O-NO 67 0 min 14,4 C 17,0 C 0,0 km/h (0 Bft)
05.07.2021 02:43 16,9 C 19,1 C 16,9 C 17,1 C 17,1 C 0,2 C 86 % 89 % 1010,4 hPa 0,0 l/m 0,0 km/h (0 Bft) O-NO 67 0 min 14,5 C 17,1 C 0,0 km/h (0 Bft)
05.07.2021 02:48 16,9 C 19,1 C 16,9 C 17,1 C 17,1 C 0,2 C 86 % 89 % 1010,4 hPa 0,0 l/m 0,0 km/h (0 Bft) O-NO 67 0 min 14,5 C 17,1 C 0,0 km/h (0 Bft)
05.07.2021 02:53 16,9 C 19,0 C 16,9 C 17,2 C 17,2 C 0,3 C 86 % 89 % 1010,4 hPa 0,0 l/m 0,0 km/h (0 Bft) S 180 0 min 14,5 C 17,2 C 0,0 km/h (0 Bft)
05.07.2021 02:58 17,0 C 19,0 C 17,0 C 17,3 C 17,3 C 0,3 C 86 % 89 % 1010,4 hPa 0,0 l/m 0,0 km/h (0 Bft) S 180 0 min 14,6 C 17,3 C 0,0 km/h (0 Bft)
05.07.2021 03:03 17,1 C 18,9 C 17,0 C 17,4 C 17,4 C 0,3 C 86 % 89 % 1010,4 hPa 0,0 l/m 0,6 km/h (0 Bft) S 180 0 min 14,7 C 17,4 C 2,9 km/h (1 Bft)
05.07.2021 03:08 17,1 C 18,9 C 17,0 C 17,4 C 17,4 C 0,3 C 86 % 88 % 1010,4 hPa 0,0 l/m 1,0 km/h (0 Bft) S 180 0 min 14,7 C 17,4 C 0,0 km/h (0 Bft)
05.07.2021 03:13 17,3 C 18,9 C 17,0 C 17,5 C 17,5 C 0,2 C 86 % 88 % 1010,4 hPa 0,0 l/m 1,1 km/h (1 Bft) S-SO 157 0 min 14,9 C 17,5 C 1,6 km/h (1 Bft)
05.07.2021 03:18 17,3 C 18,9 C 17,1 C 17,5 C 17,5 C 0,2 C 86 % 88 % 1010,4 hPa 0,0 l/m 0,8 km/h (0 Bft) S-SO 157 0 min 14,9 C 17,5 C 2,1 km/h (1 Bft)
05.07.2021 03:23 17,3 C 18,9 C 17,1 C 17,5 C 17,5 C 0,2 C 86 % 88 % 1010,4 hPa 0,0 l/m 0,5 km/h (0 Bft) S-SO 157 0 min 14,9 C 17,5 C 0,0 km/h (0 Bft)
05.07.2021 03:28 17,4 C 18,9 C 17,1 C 17,4 C 17,4 C 0,0 C 86 % 87 % 1010,4 hPa 0,0 l/m 0,5 km/h (0 Bft) S 180 0 min 15,0 C 17,4 C 2,9 km/h (1 Bft)
05.07.2021 03:33 17,4 C 19,0 C 17,0 C 17,4 C 17,3 C 0,0 C 86 % 87 % 1010,5 hPa 0,0 l/m 1,1 km/h (1 Bft) SO 135 0 min 15,0 C 17,3 C 3,4 km/h (1 Bft)
05.07.2021 03:38 17,4 C 19,0 C 17,0 C 17,4 C 17,3 C 0,0 C 86 % 87 % 1010,5 hPa 0,0 l/m 1,1 km/h (1 Bft) S-SO 157 0 min 15,0 C 17,3 C 0,0 km/h (0 Bft)
05.07.2021 03:43 17,3 C 19,0 C 17,0 C 17,2 C 17,1 C 0,0 C 86 % 87 % 1010,5 hPa 0,0 l/m 0,6 km/h (0 Bft) S 180 0 min 14,9 C 17,1 C 0,0 km/h (0 Bft)
05.07.2021 03:48 17,3 C 19,1 C 16,9 C 17,2 C 17,0 C 0,0 C 86 % 87 % 1010,5 hPa 0,0 l/m 0,6 km/h (0 Bft) S 180 0 min 14,9 C 17,0 C 1,6 km/h (1 Bft)
05.07.2021 03:53 17,2 C 19,2 C 16,7 C 16,9 C 16,4 C 0,0 C 86 % 88 % 1010,8 hPa 0,0 l/m 0,3 km/h (0 Bft) SW 225 0 min 14,8 C 16,4 C 0,0 km/h (0 Bft)
05.07.2021 03:58 17,2 C 19,2 C 16,6 C 16,9 C 16,2 C 0,0 C 86 % 88 % 1010,8 hPa 0,0 l/m 0,3 km/h (0 Bft) W-SW 247 0 min 14,8 C 16,2 C 0,0 km/h (0 Bft)
05.07.2021 04:03 17,2 C 19,2 C 16,4 C 16,8 C 16,1 C 0,0 C 86 % 88 % 1010,8 hPa 0,0 l/m 0,2 km/h (0 Bft) S-SW 202 0 min 14,8 C 16,1 C 3,2 km/h (1 Bft)
05.07.2021 04:08 17,1 C 19,2 C 16,4 C 16,7 C 16,0 C 0,0 C 86 % 89 % 1010,8 hPa 0,0 l/m 0,2 km/h (0 Bft) S-SW 202 0 min 14,7 C 16,0 C 0,0 km/h (0 Bft)
05.07.2021 04:13 17,1 C 19,2 C 16,3 C 16,7 C 15,9 C 0,0 C 86 % 89 % 1010,8 hPa 0,0 l/m 0,2 km/h (0 Bft) S-SW 202 0 min 14,7 C 15,9 C 0,0 km/h (0 Bft)
05.07.2021 04:18 16,9 C 19,2 C 16,3 C 16,6 C 15,9 C 0,0 C 86 % 89 % 1010,8 hPa 0,0 l/m 0,3 km/h (0 Bft) SW 225 0 min 14,5 C 15,9 C 3,4 km/h (1 Bft)
05.07.2021 04:23 16,8 C 19,2 C 16,3 C 16,5 C 15,9 C 0,0 C 86 % 90 % 1010,8 hPa 0,0 l/m 0,6 km/h (0 Bft) O-SO 112 0 min 14,4 C 15,9 C 0,0 km/h (0 Bft)
05.07.2021 04:28 16,9 C 19,2 C 16,3 C 16,6 C 15,9 C 0,0 C 86 % 90 % 1010,8 hPa 0,0 l/m 0,8 km/h (0 Bft) SW 225 0 min 14,5 C 15,9 C 0,0 km/h (0 Bft)
05.07.2021 04:33 16,7 C 19,2 C 16,2 C 16,4 C 15,8 C 0,0 C 86 % 90 % 1010,8 hPa 0,0 l/m 0,2 km/h (0 Bft) S-SO 157 0 min 14,3 C 15,8 C 0,0 km/h (0 Bft)
05.07.2021 04:38 16,7 C 19,2 C 16,2 C 16,4 C 15,8 C 0,0 C 86 % 90 % 1010,8 hPa 0,0 l/m 0,0 km/h (0 Bft) S-SO 157 0 min 14,3 C 15,8 C 0,0 km/h (0 Bft)
05.07.2021 04:43 16,7 C 19,2 C 16,2 C 16,4 C 15,8 C 0,0 C 86 % 90 % 1010,8 hPa 0,0 l/m 0,2 km/h (0 Bft) W-SW 247 0 min 14,3 C 15,8 C 0,0 km/h (0 Bft)
05.07.2021 04:48 16,6 C 19,2 C 16,1 C 16,3 C 15,8 C 0,0 C 87 % 90 % 1010,8 hPa 0,0 l/m 0,3 km/h (0 Bft) S 180 0 min 14,4 C 15,8 C 0,0 km/h (0 Bft)
05.07.2021 04:53 16,5 C 19,2 C 16,1 C 16,3 C 15,8 C 0,0 C 87 % 90 % 1010,7 hPa 0,0 l/m 0,2 km/h (0 Bft) W 270 0 min 14,3 C 15,8 C 2,1 km/h (1 Bft)
05.07.2021 04:58 16,4 C 19,2 C 16,1 C 16,2 C 15,8 C 0,0 C 87 % 90 % 1010,7 hPa 0,0 l/m 0,3 km/h (0 Bft) S 180 0 min 14,2 C 15,8 C 0,0 km/h (0 Bft)
05.07.2021 05:03 16,5 C 19,2 C 16,1 C 16,3 C 15,8 C 0,0 C 87 % 90 % 1010,7 hPa 0,0 l/m 0,2 km/h (0 Bft) S 180 0 min 14,3 C 15,8 C 1,6 km/h (1 Bft)
05.07.2021 05:08 16,4 C 19,2 C 16,1 C 16,2 C 15,8 C 0,0 C 87 % 90 % 1010,7 hPa 0,0 l/m 0,2 km/h (0 Bft) S 180 0 min 14,2 C 15,8 C 0,0 km/h (0 Bft)
05.07.2021 05:13 16,3 C 19,1 C 16,1 C 16,1 C 15,7 C 0,0 C 87 % 90 % 1010,9 hPa 0,0 l/m 0,2 km/h (0 Bft) S-SW 202 0 min 14,1 C 15,7 C 0,0 km/h (0 Bft)
05.07.2021 05:18 16,3 C 19,1 C 16,1 C 16,1 C 15,8 C 0,0 C 87 % 90 % 1010,9 hPa 0,0 l/m 0,0 km/h (0 Bft) S 180 0 min 14,1 C 15,8 C 0,0 km/h (0 Bft)
05.07.2021 05:23 16,3 C 19,1 C 16,1 C 16,1 C 15,8 C 0,0 C 87 % 90 % 1010,9 hPa 0,0 l/m 0,0 km/h (0 Bft) O-SO 112 0 min 14,1 C 15,8 C 0,0 km/h (0 Bft)
05.07.2021 05:28 16,2 C 19,1 C 16,1 C 16,1 C 15,8 C 0,0 C 87 % 90 % 1010,9 hPa 0,0 l/m 0,2 km/h (0 Bft) SO 135 0 min 14,0 C 15,8 C 2,9 km/h (1 Bft)
05.07.2021 05:33 16,2 C 19,1 C 16,2 C 16,1 C 15,9 C 0,0 C 87 % 91 % 1011,0 hPa 0,0 l/m 0,2 km/h (0 Bft) W-SW 247 0 min 14,0 C 15,9 C 0,0 km/h (0 Bft)
05.07.2021 05:38 16,3 C 19,1 C 16,2 C 16,2 C 15,9 C 0,0 C 87 % 91 % 1011,0 hPa 0,0 l/m 0,2 km/h (0 Bft) S 180 0 min 14,1 C 15,9 C 0,0 km/h (0 Bft)
05.07.2021 05:43 16,2 C 19,1 C 16,3 C 16,1 C 16,0 C 0,0 C 87 % 91 % 1011,0 hPa 0,0 l/m 0,0 km/h (0 Bft) S 180 0 min 14,0 C 16,0 C 0,0 km/h (0 Bft)
05.07.2021 05:48 16,1 C 19,1 C 16,2 C 16,1 C 16,1 C 0,0 C 87 % 91 % 1011,0 hPa 0,0 l/m 0,0 km/h (0 Bft) SW 225 0 min 13,9 C 16,1 C 0,0 km/h (0 Bft)
05.07.2021 05:53 16,1 C 19,1 C 16,3 C 16,1 C 16,1 C 0,0 C 87 % 91 % 1011,1 hPa 0,0 l/m 0,2 km/h (0 Bft) S-SO 157 0 min 13,9 C 16,1 C 0,0 km/h (0 Bft)
05.07.2021 05:58 16,1 C 19,1 C 16,3 C 16,2 C 16,2 C 0,1 C 87 % 91 % 1011,1 hPa 0,0 l/m 0,2 km/h (0 Bft) SO 135 0 min 13,9 C 16,2 C 0,0 km/h (0 Bft)
05.07.2021 06:03 16,1 C 19,1 C 16,3 C 16,2 C 16,2 C 0,1 C 87 % 91 % 1011,1 hPa 0,0 l/m 0,2 km/h (0 Bft) N-NO 22 0 min 13,9 C 16,2 C 0,0 km/h (0 Bft)
05.07.2021 06:08 16,1 C 19,1 C 16,3 C 16,2 C 16,2 C 0,1 C 87 % 91 % 1011,1 hPa 0,0 l/m 0,2 km/h (0 Bft) N-NO 22 0 min 13,9 C 16,2 C 0,0 km/h (0 Bft)
05.07.2021 06:13 16,1 C 19,1 C 16,3 C 16,2 C 16,2 C 0,1 C 87 % 91 % 1011,1 hPa 0,0 l/m 0,2 km/h (0 Bft) SO 135 0 min 13,9 C 16,2 C 0,0 km/h (0 Bft)
05.07.2021 06:18 16,1 C 19,1 C 16,3 C 16,2 C 16,2 C 0,1 C 87 % 91 % 1011,1 hPa 0,0 l/m 0,2 km/h (0 Bft) S 180 0 min 13,9 C 16,2 C 0,0 km/h (0 Bft)
05.07.2021 06:23 16,1 C 19,1 C 16,4 C 16,2 C 16,2 C 0,1 C 87 % 91 % 1011,1 hPa 0,0 l/m 0,0 km/h (0 Bft) SW 225 0 min 13,9 C 16,2 C 0,0 km/h (0 Bft)
05.07.2021 06:28 16,1 C 19,1 C 16,4 C 16,2 C 16,2 C 0,1 C 87 % 91 % 1011,1 hPa 0,0 l/m 0,2 km/h (0 Bft) W-SW 247 0 min 13,9 C 16,2 C 0,0 km/h (0 Bft)
05.07.2021 06:33 16,1 C 19,1 C 16,4 C 16,4 C 16,4 C 0,3 C 87 % 91 % 1011,0 hPa 0,0 l/m 0,2 km/h (0 Bft) S 180 0 min 13,9 C 16,4 C 0,0 km/h (0 Bft)
05.07.2021 06:38 16,1 C 19,1 C 16,5 C 16,4 C 16,4 C 0,3 C 87 % 91 % 1011,0 hPa 0,0 l/m 0,2 km/h (0 Bft) S 180 0 min 13,9 C 16,4 C 0,0 km/h (0 Bft)
05.07.2021 06:43 16,2 C 19,1 C 16,5 C 16,6 C 16,6 C 0,4 C 87 % 91 % 1011,0 hPa 0,0 l/m 0,2 km/h (0 Bft) S-SO 157 0 min 14,0 C 16,6 C 0,0 km/h (0 Bft)
05.07.2021 06:48 16,3 C 19,1 C 16,5 C 16,7 C 16,7 C 0,4 C 87 % 91 % 1011,0 hPa 0,0 l/m 0,2 km/h (0 Bft) O-SO 112 0 min 14,1 C 16,7 C 0,0 km/h (0 Bft)
05.07.2021 06:53 16,3 C 19,1 C 16,7 C 16,9 C 16,9 C 0,6 C 87 % 91 % 1011,1 hPa 0,0 l/m 0,0 km/h (0 Bft) S-SW 202 0 min 14,1 C 16,9 C 0,0 km/h (0 Bft)
05.07.2021 06:58 16,2 C 19,1 C 16,7 C 17,0 C 17,0 C 0,8 C 87 % 91 % 1011,1 hPa 0,0 l/m 0,0 km/h (0 Bft) S-SW 202 0 min 14,0 C 17,0 C 0,0 km/h (0 Bft)
05.07.2021 07:03 16,3 C 19,1 C 16,7 C 17,0 C 17,0 C 0,7 C 87 % 91 % 1011,1 hPa 0,0 l/m 0,0 km/h (0 Bft) S 180 0 min 14,1 C 17,0 C 0,0 km/h (0 Bft)
05.07.2021 07:08 16,3 C 19,1 C 16,7 C 16,9 C 16,9 C 0,6 C 87 % 91 % 1011,1 hPa 0,0 l/m 0,0 km/h (0 Bft) S 180 0 min 14,1 C 16,9 C 0,0 km/h (0 Bft)
05.07.2021 07:13 16,4 C 19,1 C 16,8 C 16,9 C 16,9 C 0,5 C 87 % 91 % 1011,1 hPa 0,0 l/m 0,0 km/h (0 Bft) S-SW 202 0 min 14,2 C 16,9 C 0,0 km/h (0 Bft)
05.07.2021 07:18 16,4 C 19,1 C 16,8 C 16,9 C 16,9 C 0,5 C 87 % 91 % 1011,1 hPa 0,0 l/m 0,0 km/h (0 Bft) S 180 0 min 14,2 C 16,9 C 0,0 km/h (0 Bft)
05.07.2021 07:23 16,4 C 19,1 C 16,9 C 17,0 C 17,0 C 0,6 C 87 % 91 % 1011,1 hPa 0,0 l/m 0,0 km/h (0 Bft) S-SO 157 0 min 14,2 C 17,0 C 0,0 km/h (0 Bft)
05.07.2021 07:28 16,5 C 19,1 C 17,0 C 17,2 C 17,2 C 0,7 C 87 % 91 % 1011,1 hPa 0,0 l/m 0,0 km/h (0 Bft) S-SO 157 0 min 14,3 C 17,2 C 0,0 km/h (0 Bft)
05.07.2021 07:33 16,6 C 19,1 C 17,2 C 17,6 C 17,6 C 1,0 C 87 % 91 % 1011,1 hPa 0,0 l/m 0,0 km/h (0 Bft) S-SO 157 0 min 14,4 C 17,6 C 0,0 km/h (0 Bft)
05.07.2021 07:38 16,7 C 19,1 C 17,3 C 17,8 C 17,8 C 1,1 C 87 % 91 % 1011,1 hPa 0,0 l/m 0,2 km/h (0 Bft) SO 135 0 min 14,5 C 17,8 C 3,2 km/h (1 Bft)
05.07.2021 07:43 16,7 C 19,0 C 17,4 C 18,2 C 18,2 C 1,5 C 87 % 91 % 1011,1 hPa 0,0 l/m 0,3 km/h (0 Bft) S-SW 202 0 min 14,5 C 18,2 C 0,0 km/h (0 Bft)
05.07.2021 07:48 16,9 C 19,0 C 17,5 C 18,6 C 18,6 C 1,7 C 87 % 91 % 1011,1 hPa 0,0 l/m 0,5 km/h (0 Bft) NO 45 0 min 14,7 C 18,6 C 0,0 km/h (0 Bft)
05.07.2021 07:53 17,0 C 19,0 C 17,5 C 19,0 C 19,0 C 2,0 C 87 % 90 % 1011,2 hPa 0,0 l/m 0,5 km/h (0 Bft) SW 225 0 min 14,8 C 19,0 C 2,1 km/h (1 Bft)
05.07.2021 07:58 17,1 C 19,0 C 17,5 C 19,2 C 19,2 C 2,1 C 87 % 90 % 1011,2 hPa 0,0 l/m 0,6 km/h (0 Bft) SO 135 0 min 14,9 C 19,2 C 0,0 km/h (0 Bft)
05.07.2021 08:03 17,3 C 18,9 C 17,7 C 20,4 C 20,4 C 3,1 C 87 % 90 % 1011,2 hPa 0,0 l/m 0,8 km/h (0 Bft) S-SO 157 0 min 15,1 C 20,4 C 0,0 km/h (0 Bft)
05.07.2021 08:08 17,5 C 18,8 C 17,7 C 20,8 C 20,8 C 3,3 C 87 % 90 % 1011,2 hPa 0,0 l/m 0,6 km/h (0 Bft) SW 225 5 min 15,3 C 20,8 C 0,0 km/h (0 Bft)
05.07.2021 08:13 17,7 C 18,8 C 17,9 C 21,0 C 21,0 C 3,3 C 87 % 90 % 1011,1 hPa 0,0 l/m 0,5 km/h (0 Bft) W 270 5 min 15,5 C 21,0 C 2,1 km/h (1 Bft)
05.07.2021 08:18 17,9 C 18,9 C 17,9 C 21,0 C 21,0 C 3,1 C 87 % 90 % 1011,1 hPa 0,0 l/m 0,3 km/h (0 Bft) S-SW 202 0 min 15,7 C 21,0 C 0,0 km/h (0 Bft)
05.07.2021 08:23 18,1 C 18,8 C 17,9 C 22,9 C 22,9 C 4,8 C 87 % 90 % 1011,1 hPa 0,0 l/m 0,5 km/h (0 Bft) S 180 5 min 15,9 C 22,9 C 2,3 km/h (1 Bft)
05.07.2021 08:28 18,5 C 18,7 C 18,0 C 24,8 C 24,8 C 6,3 C 87 % 90 % 1011,1 hPa 0,0 l/m 0,5 km/h (0 Bft) SW 225 5 min 16,3 C 24,8 C 0,0 km/h (0 Bft)
05.07.2021 08:33 18,8 C 18,7 C 18,1 C 24,8 C 24,8 C 6,0 C 87 % 89 % 1011,2 hPa 0,0 l/m 0,8 km/h (0 Bft) S-SO 157 5 min 16,6 C 24,8 C 0,0 km/h (0 Bft)
05.07.2021 08:38 19,0 C 18,6 C 18,0 C 23,7 C 23,7 C 4,7 C 86 % 89 % 1011,2 hPa 0,0 l/m 1,1 km/h (1 Bft) S 180 5 min 16,6 C 23,7 C 3,4 km/h (1 Bft)
05.07.2021 08:43 19,2 C 18,6 C 18,3 C 22,7 C 22,7 C 3,5 C 86 % 89 % 1011,2 hPa 0,0 l/m 1,0 km/h (0 Bft) O-SO 112 5 min 16,8 C 22,7 C 2,1 km/h (1 Bft)
05.07.2021 08:48 19,5 C 18,6 C 18,3 C 24,0 C 24,0 C 4,5 C 85 % 88 % 1011,2 hPa 0,0 l/m 1,0 km/h (0 Bft) S-SW 202 5 min 16,9 C 24,0 C 2,9 km/h (1 Bft)
05.07.2021 08:53 19,6 C 18,6 C 18,6 C 25,9 C 25,9 C 6,3 C 84 % 88 % 1011,1 hPa 0,0 l/m 1,3 km/h (1 Bft) S-SW 202 5 min 16,8 C 25,9 C 0,0 km/h (0 Bft)
05.07.2021 08:58 19,6 C 18,5 C 18,7 C 26,5 C 26,5 C 6,9 C 83 % 88 % 1011,1 hPa 0,0 l/m 1,3 km/h (1 Bft) N-NO 22 5 min 16,6 C 26,5 C 3,1 km/h (1 Bft)
05.07.2021 09:03 19,7 C 18,5 C 18,8 C 25,0 C 25,0 C 5,3 C 81 % 87 % 1011,1 hPa 0,0 l/m 1,3 km/h (1 Bft) W-NW 292 5 min 16,3 C 25,0 C 2,4 km/h (1 Bft)
05.07.2021 09:08 19,8 C 18,5 C 18,9 C 24,3 C 24,3 C 4,5 C 80 % 86 % 1011,1 hPa 0,0 l/m 1,4 km/h (1 Bft) S-SO 157 5 min 16,2 C 24,3 C 0,0 km/h (0 Bft)
05.07.2021 09:13 19,9 C 18,5 C 19,0 C 24,8 C 24,8 C 4,9 C 80 % 85 % 1011,1 hPa 0,0 l/m 1,3 km/h (1 Bft) S-SO 157 5 min 16,3 C 24,8 C 3,1 km/h (1 Bft)
05.07.2021 09:18 20,0 C 18,5 C 19,2 C 26,7 C 26,7 C 6,7 C 79 % 85 % 1011,1 hPa 0,0 l/m 1,8 km/h (1 Bft) SW 225 5 min 16,2 C 26,7 C 4,8 km/h (1 Bft)
05.07.2021 09:23 20,3 C 18,5 C 19,2 C 26,9 C 26,9 C 6,6 C 77 % 84 % 1011,1 hPa 0,0 l/m 2,7 km/h (1 Bft) S 180 5 min 16,1 C 26,9 C 3,2 km/h (1 Bft)
05.07.2021 09:28 20,3 C 18,5 C 19,2 C 27,6 C 27,6 C 7,3 C 77 % 83 % 1011,1 hPa 0,0 l/m 2,4 km/h (1 Bft) W-SW 247 5 min 16,1 C 27,6 C 0,0 km/h (0 Bft)
05.07.2021 09:33 20,4 C 18,5 C 19,4 C 28,9 C 28,9 C 8,5 C 77 % 83 % 1011,1 hPa 0,0 l/m 2,1 km/h (1 Bft) S-SW 202 5 min 16,2 C 28,9 C 4,2 km/h (1 Bft)
05.07.2021 09:38 20,5 C 18,5 C 19,4 C 29,2 C 29,2 C 8,7 C 74 % 82 % 1011,1 hPa 0,0 l/m 2,4 km/h (1 Bft) SW 225 5 min 15,7 C 29,2 C 3,1 km/h (1 Bft)
05.07.2021 09:43 20,7 C 18,5 C 19,5 C 29,6 C 29,6 C 8,9 C 74 % 81 % 1011,1 hPa 0,0 l/m 2,4 km/h (1 Bft) SW 225 5 min 15,9 C 29,6 C 2,4 km/h (1 Bft)
05.07.2021 09:48 20,8 C 18,5 C 19,5 C 29,5 C 29,5 C 8,7 C 74 % 81 % 1011,1 hPa 0,0 l/m 1,9 km/h (1 Bft) S-SO 157 5 min 16,0 C 29,5 C 4,0 km/h (1 Bft)
05.07.2021 09:53 21,1 C 18,5 C 19,7 C 27,6 C 27,6 C 6,5 C 73 % 80 % 1011,1 hPa 0,0 l/m 1,4 km/h (1 Bft) S 180 5 min 16,1 C 27,6 C 3,5 km/h (1 Bft)
05.07.2021 09:58 21,1 C 18,5 C 19,8 C 26,3 C 26,3 C 5,2 C 73 % 80 % 1011,1 hPa 0,0 l/m 1,6 km/h (1 Bft) S-SW 202 5 min 16,1 C 26,3 C 2,3 km/h (1 Bft)
05.07.2021 10:03 21,2 C 18,5 C 20,2 C 28,2 C 28,2 C 7,0 C 73 % 80 % 1011,1 hPa 0,0 l/m 1,9 km/h (1 Bft) S-SO 157 5 min 16,2 C 28,2 C 2,7 km/h (1 Bft)
05.07.2021 10:08 21,5 C 18,5 C 20,3 C 28,0 C 28,0 C 6,5 C 72 % 79 % 1011,1 hPa 0,0 l/m 1,9 km/h (1 Bft) W-SW 247 5 min 16,2 C 28,0 C 2,4 km/h (1 Bft)
05.07.2021 10:13 21,5 C 18,5 C 20,4 C 28,0 C 28,0 C 6,5 C 70 % 76 % 1010,7 hPa 0,0 l/m 2,3 km/h (1 Bft) N 360 5 min 15,8 C 28,0 C 3,4 km/h (1 Bft)
05.07.2021 10:18 21,6 C 18,5 C 20,5 C 27,4 C 27,4 C 5,8 C 69 % 76 % 1010,7 hPa 0,0 l/m 2,1 km/h (1 Bft) SO 135 5 min 15,7 C 27,4 C 3,9 km/h (1 Bft)
05.07.2021 10:23 21,6 C 18,5 C 20,5 C 26,6 C 26,6 C 5,0 C 68 % 76 % 1010,7 hPa 0,0 l/m 2,3 km/h (1 Bft) S-SW 202 5 min 15,4 C 26,6 C 3,4 km/h (1 Bft)
05.07.2021 10:28 21,7 C 18,5 C 20,7 C 26,5 C 26,5 C 4,8 C 69 % 76 % 1010,7 hPa 0,0 l/m 2,4 km/h (1 Bft) W-SW 247 5 min 15,8 C 26,5 C 3,1 km/h (1 Bft)
05.07.2021 10:33 21,9 C 18,4 C 20,9 C 27,1 C 27,1 C 5,2 C 70 % 76 % 1010,6 hPa 0,0 l/m 2,1 km/h (1 Bft) W-SW 247 5 min 16,2 C 27,1 C 5,0 km/h (1 Bft)
05.07.2021 10:38 22,0 C 18,4 C 21,1 C 27,2 C 27,2 C 5,2 C 69 % 76 % 1010,6 hPa 0,0 l/m 1,9 km/h (1 Bft) W-SW 247 5 min 16,0 C 27,2 C 2,6 km/h (1 Bft)
05.07.2021 10:43 22,1 C 18,4 C 21,3 C 27,5 C 27,5 C 5,4 C 69 % 74 % 1010,6 hPa 0,0 l/m 2,3 km/h (1 Bft) S 180 5 min 16,1 C 27,5 C 2,7 km/h (1 Bft)
05.07.2021 10:48 22,1 C 18,4 C 21,4 C 27,8 C 27,8 C 5,7 C 67 % 73 % 1010,6 hPa 0,0 l/m 2,6 km/h (1 Bft) W-SW 247 5 min 15,7 C 27,8 C 3,9 km/h (1 Bft)
05.07.2021 10:53 22,1 C 18,4 C 21,4 C 27,7 C 27,7 C 5,6 C 66 % 72 % 1010,9 hPa 0,0 l/m 2,6 km/h (1 Bft) W-NW 292 5 min 15,4 C 27,7 C 3,4 km/h (1 Bft)
05.07.2021 10:58 22,1 C 18,4 C 21,4 C 27,4 C 27,4 C 5,3 C 67 % 72 % 1010,9 hPa 0,0 l/m 2,3 km/h (1 Bft) S 180 5 min 15,7 C 27,4 C 2,7 km/h (1 Bft)
05.07.2021 11:03 22,2 C 18,4 C 21,4 C 26,9 C 26,9 C 4,7 C 67 % 71 % 1010,9 hPa 0,0 l/m 2,3 km/h (1 Bft) W-SW 247 5 min 15,8 C 26,9 C 2,9 km/h (1 Bft)
05.07.2021 11:08 22,1 C 18,4 C 21,4 C 26,3 C 26,3 C 4,2 C 67 % 71 % 1010,9 hPa 0,0 l/m 2,4 km/h (1 Bft) O 90 5 min 15,7 C 26,3 C 4,8 km/h (1 Bft)
05.07.2021 11:13 22,1 C 18,4 C 21,3 C 25,4 C 25,4 C 3,3 C 67 % 70 % 1011,2 hPa 0,0 l/m 1,9 km/h (1 Bft) S-SO 157 5 min 15,7 C 25,4 C 0,0 km/h (0 Bft)
05.07.2021 11:18 22,0 C 18,5 C 21,3 C 25,3 C 25,3 C 3,3 C 66 % 71 % 1011,2 hPa 0,0 l/m 1,9 km/h (1 Bft) SO 135 5 min 15,3 C 25,3 C 3,7 km/h (1 Bft)
05.07.2021 11:23 22,1 C 18,5 C 21,2 C 25,2 C 25,2 C 3,1 C 67 % 72 % 1011,2 hPa 0,0 l/m 1,3 km/h (1 Bft) SW 225 0 min 15,7 C 25,2 C 1,6 km/h (1 Bft)
05.07.2021 11:28 22,0 C 18,5 C 21,3 C 25,3 C 25,3 C 3,3 C 68 % 72 % 1011,2 hPa 0,0 l/m 1,1 km/h (1 Bft) W-SW 247 5 min 15,8 C 25,3 C 3,7 km/h (1 Bft)
05.07.2021 11:33 22,0 C 18,5 C 21,4 C 25,2 C 25,2 C 3,2 C 67 % 71 % 1011,1 hPa 0,0 l/m 1,6 km/h (1 Bft) S 180 0 min 15,6 C 25,2 C 3,2 km/h (1 Bft)
05.07.2021 11:38 22,0 C 18,6 C 21,3 C 25,2 C 25,2 C 3,2 C 67 % 72 % 1011,1 hPa 0,0 l/m 1,9 km/h (1 Bft) W-NW 292 0 min 15,6 C 25,2 C 5,1 km/h (1 Bft)
05.07.2021 11:43 22,1 C 18,5 C 21,5 C 25,3 C 25,3 C 3,2 C 67 % 72 % 1011,1 hPa 0,0 l/m 1,9 km/h (1 Bft) SW 225 0 min 15,7 C 25,3 C 2,7 km/h (1 Bft)
05.07.2021 11:48 22,2 C 18,5 C 21,4 C 25,2 C 25,2 C 3,0 C 66 % 70 % 1011,1 hPa 0,0 l/m 2,7 km/h (1 Bft) SW 225 0 min 15,5 C 25,2 C 5,3 km/h (1 Bft)
05.07.2021 11:53 21,9 C 18,5 C 21,4 C 25,0 C 25,0 C 3,1 C 65 % 71 % 1011,1 hPa 0,0 l/m 3,1 km/h (1 Bft) SW 225 0 min 15,0 C 25,0 C 3,7 km/h (1 Bft)
05.07.2021 11:58 21,9 C 18,5 C 21,3 C 24,8 C 24,8 C 2,9 C 66 % 71 % 1011,1 hPa 0,0 l/m 2,9 km/h (1 Bft) SW 225 0 min 15,3 C 24,8 C 3,9 km/h (1 Bft)
05.07.2021 12:03 21,9 C 18,6 C 21,3 C 24,6 C 24,6 C 2,7 C 66 % 70 % 1011,1 hPa 0,0 l/m 2,9 km/h (1 Bft) W-SW 247 0 min 15,3 C 24,6 C 2,4 km/h (1 Bft)
05.07.2021 12:08 21,9 C 18,6 C 21,3 C 24,6 C 24,6 C 2,7 C 66 % 69 % 1011,1 hPa 0,0 l/m 2,7 km/h (1 Bft) SO 135 0 min 15,3 C 24,6 C 3,2 km/h (1 Bft)
05.07.2021 12:13 22,1 C 18,5 C 21,4 C 25,0 C 25,0 C 2,9 C 66 % 70 % 1011,1 hPa 0,0 l/m 2,3 km/h (1 Bft) W 270 0 min 15,4 C 25,0 C 3,7 km/h (1 Bft)
05.07.2021 12:18 22,1 C 18,5 C 21,4 C 24,9 C 24,9 C 2,8 C 67 % 71 % 1011,1 hPa 0,0 l/m 2,4 km/h (1 Bft) W-SW 247 0 min 15,7 C 24,9 C 3,1 km/h (1 Bft)
05.07.2021 12:23 22,0 C 18,5 C 21,5 C 25,0 C 25,0 C 3,0 C 68 % 70 % 1011,1 hPa 0,0 l/m 2,3 km/h (1 Bft) S 180 0 min 15,8 C 25,0 C 0,0 km/h (0 Bft)
05.07.2021 12:28 22,1 C 18,5 C 21,6 C 25,3 C 25,3 C 3,2 C 67 % 70 % 1011,1 hPa 0,0 l/m 2,1 km/h (1 Bft) S 180 0 min 15,7 C 25,3 C 3,4 km/h (1 Bft)
05.07.2021 12:33 22,5 C 18,5 C 21,9 C 26,3 C 26,3 C 3,8 C 67 % 71 % 1011,1 hPa 0,0 l/m 2,1 km/h (1 Bft) SW 225 5 min 16,1 C 26,3 C 3,5 km/h (1 Bft)
05.07.2021 12:38 22,5 C 18,5 C 22,1 C 26,8 C 26,8 C 4,3 C 67 % 70 % 1011,1 hPa 0,0 l/m 2,4 km/h (1 Bft) NO 45 5 min 16,1 C 26,8 C 1,6 km/h (1 Bft)
05.07.2021 12:43 22,8 C 18,5 C 22,3 C 27,4 C 27,4 C 4,6 C 66 % 69 % 1011,1 hPa 0,0 l/m 2,6 km/h (1 Bft) S-SW 202 5 min 16,1 C 27,4 C 2,7 km/h (1 Bft)
05.07.2021 12:48 23,0 C 18,5 C 22,3 C 27,9 C 27,9 C 4,9 C 66 % 69 % 1011,1 hPa 0,0 l/m 2,6 km/h (1 Bft) SW 225 5 min 16,3 C 27,9 C 3,2 km/h (1 Bft)
05.07.2021 12:53 23,5 C 18,5 C 22,4 C 28,2 C 28,2 C 4,7 C 65 % 68 % 1010,9 hPa 0,0 l/m 2,3 km/h (1 Bft) SW 225 5 min 16,5 C 28,2 C 5,0 km/h (1 Bft)
05.07.2021 12:58 23,5 C 18,5 C 22,5 C 28,0 C 28,0 C 4,5 C 64 % 68 % 1010,9 hPa 0,0 l/m 1,9 km/h (1 Bft) W-SW 247 5 min 16,3 C 28,0 C 3,1 km/h (1 Bft)
05.07.2021 13:03 23,9 C 18,6 C 23,0 C 29,6 C 29,6 C 5,7 C 63 % 68 % 1010,9 hPa 0,0 l/m 2,4 km/h (1 Bft) W-SW 247 5 min 16,4 C 29,6 C 2,6 km/h (1 Bft)
05.07.2021 13:08 24,1 C 18,6 C 23,1 C 30,1 C 30,1 C 6,0 C 63 % 67 % 1010,9 hPa 0,0 l/m 2,1 km/h (1 Bft) S 180 5 min 16,6 C 30,1 C 3,5 km/h (1 Bft)
05.07.2021 13:13 24,2 C 18,6 C 23,1 C 29,9 C 29,9 C 5,7 C 62 % 66 % 1010,8 hPa 0,0 l/m 2,3 km/h (1 Bft) S 180 5 min 16,4 C 29,9 C 2,7 km/h (1 Bft)
05.07.2021 13:18 24,5 C 18,6 C 23,2 C 29,9 C 29,9 C 5,4 C 61 % 66 % 1010,8 hPa 0,0 l/m 1,9 km/h (1 Bft) SW 225 5 min 16,5 C 29,9 C 1,9 km/h (1 Bft)
05.07.2021 13:23 24,5 C 18,6 C 22,9 C 29,5 C 29,5 C 5,0 C 61 % 67 % 1010,8 hPa 0,0 l/m 1,4 km/h (1 Bft) S 180 5 min 16,5 C 29,5 C 1,8 km/h (1 Bft)
05.07.2021 13:28 24,2 C 18,6 C 22,9 C 28,6 C 28,6 C 4,4 C 61 % 68 % 1010,8 hPa 0,0 l/m 1,6 km/h (1 Bft) N-NW 337 5 min 16,2 C 28,6 C 1,9 km/h (1 Bft)
05.07.2021 13:33 23,9 C 18,6 C 22,7 C 27,7 C 27,7 C 3,8 C 61 % 68 % 1010,8 hPa 0,0 l/m 2,1 km/h (1 Bft) SW 225 5 min 15,9 C 27,7 C 3,2 km/h (1 Bft)
05.07.2021 13:38 23,5 C 18,6 C 22,5 C 26,9 C 26,9 C 3,4 C 62 % 68 % 1010,8 hPa 0,0 l/m 2,3 km/h (1 Bft) W-SW 247 5 min 15,8 C 26,9 C 5,1 km/h (1 Bft)
05.07.2021 13:43 23,2 C 18,6 C 22,3 C 26,0 C 26,0 C 2,8 C 63 % 69 % 1010,8 hPa 0,0 l/m 2,1 km/h (1 Bft) W-SW 247 0 min 15,8 C 26,0 C 3,1 km/h (1 Bft)
05.07.2021 13:48 23,1 C 18,6 C 22,3 C 25,8 C 25,8 C 2,7 C 64 % 69 % 1010,8 hPa 0,0 l/m 1,6 km/h (1 Bft) S 180 0 min 15,9 C 25,8 C 0,0 km/h (0 Bft)
05.07.2021 13:53 23,1 C 18,6 C 22,3 C 25,7 C 25,7 C 2,6 C 65 % 69 % 1010,9 hPa 0,0 l/m 1,6 km/h (1 Bft) S-SO 157 0 min 16,2 C 25,7 C 1,9 km/h (1 Bft)
05.07.2021 13:58 23,0 C 18,7 C 22,0 C 25,1 C 25,1 C 2,1 C 65 % 71 % 1010,9 hPa 0,0 l/m 1,3 km/h (1 Bft) SO 135 0 min 16,1 C 25,1 C 0,0 km/h (0 Bft)
05.07.2021 14:03 22,5 C 19,3 C 20,1 C 22,3 C 22,0 C 0,0 C 69 % 81 % 1010,9 hPa 2,1 l/m 0,6 km/h (0 Bft) O-NO 67 0 min 16,5 C 22,0 C 0,0 km/h (0 Bft)
05.07.2021 14:08 22,1 C 19,2 C 19,8 C 21,8 C 21,2 C 0,0 C 71 % 83 % 1010,9 hPa 0,0 l/m 0,6 km/h (0 Bft) SW 225 0 min 16,6 C 21,2 C 0,0 km/h (0 Bft)
05.07.2021 14:13 21,9 C 19,2 C 19,5 C 21,5 C 20,8 C 0,0 C 73 % 86 % 1011,1 hPa 0,0 l/m 0,6 km/h (0 Bft) S-SO 157 0 min 16,8 C 20,8 C 0,0 km/h (0 Bft)
05.07.2021 14:18 21,5 C 19,1 C 19,4 C 21,2 C 20,5 C 0,0 C 73 % 88 % 1011,1 hPa 0,0 l/m 0,5 km/h (0 Bft) SW 225 0 min 16,4 C 20,5 C 0,0 km/h (0 Bft)
05.07.2021 14:23 21,2 C 19,2 C 19,1 C 20,8 C 20,0 C 0,0 C 75 % 88 % 1011,1 hPa 0,0 l/m 0,3 km/h (0 Bft) S 180 0 min 16,6 C 20,0 C 0,0 km/h (0 Bft)
05.07.2021 14:28 21,1 C 19,2 C 19,0 C 20,8 C 20,1 C 0,0 C 75 % 89 % 1011,1 hPa 0,0 l/m 0,2 km/h (0 Bft) N-NW 337 0 min 16,5 C 20,1 C 0,0 km/h (0 Bft)
05.07.2021 14:33 21,1 C 19,2 C 19,1 C 21,0 C 20,7 C 0,0 C 76 % 90 % 1011,1 hPa 0,0 l/m 0,2 km/h (0 Bft) S-SO 157 0 min 16,7 C 20,7 C 0,0 km/h (0 Bft)
05.07.2021 14:38 21,1 C 19,2 C 19,2 C 21,2 C 21,2 C 0,1 C 77 % 90 % 1011,1 hPa 0,0 l/m 0,2 km/h (0 Bft) SW 225 0 min 16,9 C 21,2 C 0,0 km/h (0 Bft)
05.07.2021 14:43 21,3 C 19,2 C 19,4 C 22,5 C 22,5 C 1,2 C 78 % 91 % 1011,1 hPa 0,0 l/m 0,2 km/h (0 Bft) SO 135 0 min 17,3 C 22,5 C 0,0 km/h (0 Bft)
05.07.2021 14:48 21,4 C 19,1 C 19,2 C 22,7 C 22,7 C 1,3 C 78 % 91 % 1011,1 hPa 0,0 l/m 0,3 km/h (0 Bft) O-NO 67 0 min 17,4 C 22,7 C 1,8 km/h (1 Bft)
05.07.2021 14:53 21,4 C 19,1 C 19,0 C 22,7 C 22,7 C 1,3 C 77 % 91 % 1011,0 hPa 0,0 l/m 0,6 km/h (0 Bft) S 180 0 min 17,2 C 22,7 C 0,0 km/h (0 Bft)
05.07.2021 14:58 21,5 C 19,2 C 19,1 C 23,1 C 23,1 C 1,6 C 77 % 91 % 1011,0 hPa 0,0 l/m 0,3 km/h (0 Bft) W 270 0 min 17,3 C 23,1 C 1,9 km/h (1 Bft)
05.07.2021 15:03 21,5 C 19,1 C 19,5 C 24,0 C 24,0 C 2,5 C 77 % 91 % 1011,0 hPa 0,0 l/m 0,2 km/h (0 Bft) NO 45 0 min 17,3 C 24,0 C 0,0 km/h (0 Bft)
05.07.2021 15:08 21,7 C 19,1 C 19,7 C 25,7 C 25,7 C 4,0 C 78 % 91 % 1011,0 hPa 0,0 l/m 0,2 km/h (0 Bft) SO 135 5 min 17,7 C 25,7 C 0,0 km/h (0 Bft)
05.07.2021 15:13 21,9 C 18,9 C 20,0 C 28,0 C 28,0 C 6,1 C 77 % 91 % 1011,4 hPa 0,0 l/m 0,0 km/h (0 Bft) S-SW 202 5 min 17,7 C 28,0 C 0,0 km/h (0 Bft)
05.07.2021 15:18 22,0 C 19,0 C 20,0 C 29,3 C 29,3 C 7,3 C 76 % 91 % 1011,4 hPa 0,0 l/m 0,2 km/h (0 Bft) O 90 5 min 17,6 C 29,3 C 0,0 km/h (0 Bft)
05.07.2021 15:23 22,3 C 18,9 C 19,9 C 28,6 C 28,6 C 6,3 C 75 % 91 % 1011,4 hPa 0,0 l/m 0,5 km/h (0 Bft) S 180 5 min 17,6 C 28,6 C 1,6 km/h (1 Bft)
05.07.2021 15:28 22,3 C 18,9 C 20,2 C 29,2 C 29,2 C 6,9 C 74 % 91 % 1011,4 hPa 0,0 l/m 0,5 km/h (0 Bft) W-SW 247 5 min 17,4 C 29,2 C 1,6 km/h (1 Bft)
05.07.2021 15:33 22,5 C 18,8 C 20,2 C 29,8 C 29,8 C 7,3 C 70 % 89 % 1010,5 hPa 0,0 l/m 2,3 km/h (1 Bft) W-SW 247 5 min 16,7 C 29,8 C 3,5 km/h (1 Bft)
05.07.2021 15:38 22,7 C 18,9 C 20,3 C 29,8 C 29,8 C 7,1 C 68 % 89 % 1010,5 hPa 0,0 l/m 3,4 km/h (1 Bft) W 270 5 min 16,5 C 29,8 C 3,7 km/h (1 Bft)
05.07.2021 15:43 22,7 C 18,8 C 20,2 C 29,6 C 29,6 C 6,9 C 66 % 89 % 1010,5 hPa 0,0 l/m 3,2 km/h (1 Bft) SW 225 5 min 16,0 C 29,6 C 4,0 km/h (1 Bft)
05.07.2021 15:48 22,9 C 18,8 C 20,2 C 29,7 C 29,7 C 6,8 C 67 % 89 % 1010,5 hPa 0,0 l/m 2,6 km/h (1 Bft) S 180 5 min 16,4 C 29,7 C 0,0 km/h (0 Bft)
05.07.2021 15:53 22,9 C 18,8 C 20,3 C 29,0 C 29,0 C 6,1 C 65 % 88 % 1010,6 hPa 0,0 l/m 2,4 km/h (1 Bft) SW 225 5 min 16,0 C 29,0 C 5,0 km/h (1 Bft)
05.07.2021 15:58 23,1 C 18,8 C 20,3 C 28,8 C 28,8 C 5,7 C 65 % 89 % 1010,6 hPa 0,0 l/m 2,1 km/h (1 Bft) S-SO 157 5 min 16,2 C 28,8 C 0,0 km/h (0 Bft)
05.07.2021 16:03 23,1 C 18,8 C 20,3 C 28,0 C 28,0 C 4,9 C 64 % 88 % 1010,6 hPa 0,0 l/m 1,4 km/h (1 Bft) SW 225 5 min 15,9 C 28,0 C 1,6 km/h (1 Bft)
05.07.2021 16:08 23,1 C 18,8 C 20,3 C 27,3 C 27,3 C 4,2 C 65 % 88 % 1010,6 hPa 0,0 l/m 1,1 km/h (1 Bft) SW 225 5 min 16,2 C 27,3 C 2,1 km/h (1 Bft)
05.07.2021 16:13 22,9 C 18,8 C 20,2 C 26,5 C 26,5 C 3,6 C 63 % 88 % 1010,6 hPa 0,0 l/m 1,4 km/h (1 Bft) S-SW 202 5 min 15,5 C 26,5 C 2,9 km/h (1 Bft)
05.07.2021 16:18 22,9 C 18,8 C 20,4 C 26,5 C 26,5 C 3,6 C 64 % 89 % 1010,6 hPa 0,0 l/m 1,4 km/h (1 Bft) S-SW 202 5 min 15,7 C 26,5 C 1,8 km/h (1 Bft)
05.07.2021 16:23 23,1 C 18,8 C 20,4 C 27,4 C 27,4 C 4,3 C 65 % 89 % 1010,6 hPa 0,0 l/m 0,8 km/h (0 Bft) S-SO 157 5 min 16,2 C 27,4 C 0,0 km/h (0 Bft)
05.07.2021 16:28 23,2 C 18,8 C 20,4 C 27,1 C 27,1 C 3,9 C 63 % 88 % 1010,6 hPa 0,0 l/m 1,6 km/h (1 Bft) S 180 5 min 15,8 C 27,1 C 2,7 km/h (1 Bft)
05.07.2021 16:33 23,3 C 18,8 C 20,7 C 28,0 C 28,0 C 4,7 C 62 % 87 % 1010,6 hPa 0,0 l/m 2,4 km/h (1 Bft) SW 225 5 min 15,6 C 28,0 C 3,5 km/h (1 Bft)
05.07.2021 16:38 23,4 C 18,9 C 20,8 C 28,8 C 28,8 C 5,4 C 61 % 87 % 1010,6 hPa 0,0 l/m 1,8 km/h (1 Bft) W-SW 247 5 min 15,4 C 28,8 C 1,8 km/h (1 Bft)
05.07.2021 16:43 23,6 C 18,9 C 21,0 C 29,3 C 29,3 C 5,7 C 62 % 87 % 1010,6 hPa 0,0 l/m 1,4 km/h (1 Bft) W-SW 247 5 min 15,9 C 29,3 C 4,7 km/h (1 Bft)
05.07.2021 16:48 23,9 C 18,9 C 21,3 C 30,3 C 30,3 C 6,4 C 61 % 88 % 1010,6 hPa 0,0 l/m 1,3 km/h (1 Bft) S-SW 202 5 min 15,9 C 30,3 C 1,6 km/h (1 Bft)
05.07.2021 16:53 24,1 C 18,9 C 21,7 C 31,0 C 31,0 C 6,9 C 62 % 87 % 1010,6 hPa 0,0 l/m 1,6 km/h (1 Bft) SW 225 5 min 16,4 C 31,0 C 2,4 km/h (1 Bft)
05.07.2021 16:58 24,1 C 18,9 C 21,5 C 30,0 C 30,0 C 5,9 C 60 % 87 % 1010,6 hPa 0,0 l/m 1,4 km/h (1 Bft) SW 225 5 min 15,8 C 30,0 C 2,9 km/h (1 Bft)
05.07.2021 17:03 24,0 C 18,9 C 21,3 C 28,3 C 28,3 C 4,3 C 60 % 87 % 1010,6 hPa 0,0 l/m 2,4 km/h (1 Bft) S-SO 157 5 min 15,7 C 28,3 C 2,3 km/h (1 Bft)
05.07.2021 17:08 23,9 C 18,9 C 21,4 C 27,3 C 27,3 C 3,4 C 61 % 87 % 1010,6 hPa 0,0 l/m 1,9 km/h (1 Bft) SO 135 5 min 15,9 C 27,3 C 3,1 km/h (1 Bft)
05.07.2021 17:13 24,0 C 18,9 C 21,4 C 27,1 C 27,1 C 3,1 C 61 % 87 % 1010,6 hPa 0,0 l/m 1,4 km/h (1 Bft) S 180 0 min 16,0 C 27,1 C 3,1 km/h (1 Bft)
05.07.2021 17:18 24,0 C 18,9 C 21,3 C 26,5 C 26,5 C 2,5 C 61 % 87 % 1010,6 hPa 0,0 l/m 1,3 km/h (1 Bft) S 180 0 min 16,0 C 26,5 C 3,1 km/h (1 Bft)
05.07.2021 17:23 23,9 C 18,9 C 21,5 C 26,8 C 26,8 C 2,9 C 61 % 88 % 1010,6 hPa 0,0 l/m 0,6 km/h (0 Bft) S 180 0 min 15,9 C 26,8 C 0,0 km/h (0 Bft)
05.07.2021 17:28 24,0 C 18,9 C 21,6 C 28,3 C 28,3 C 4,3 C 62 % 88 % 1010,6 hPa 0,0 l/m 0,3 km/h (0 Bft) S-SO 157 5 min 16,3 C 28,3 C 1,8 km/h (1 Bft)
05.07.2021 17:33 24,0 C 18,9 C 21,5 C 27,4 C 27,4 C 3,4 C 61 % 87 % 1010,5 hPa 0,0 l/m 0,8 km/h (0 Bft) SO 135 5 min 16,0 C 27,4 C 0,0 km/h (0 Bft)
05.07.2021 17:38 23,9 C 18,9 C 21,3 C 26,6 C 26,6 C 2,7 C 61 % 87 % 1010,5 hPa 0,0 l/m 0,8 km/h (0 Bft) S-SW 202 0 min 15,9 C 26,6 C 0,0 km/h (0 Bft)
05.07.2021 17:43 23,9 C 18,9 C 21,2 C 25,6 C 25,6 C 1,7 C 61 % 88 % 1010,5 hPa 0,0 l/m 0,2 km/h (0 Bft) SO 135 0 min 15,9 C 25,6 C 1,9 km/h (1 Bft)
05.07.2021 17:48 23,8 C 18,9 C 21,5 C 25,4 C 25,4 C 1,6 C 62 % 88 % 1010,5 hPa 0,0 l/m 0,2 km/h (0 Bft) W-SW 247 0 min 16,1 C 25,4 C 0,0 km/h (0 Bft)
05.07.2021 17:53 24,0 C 18,9 C 21,8 C 27,6 C 27,6 C 3,6 C 63 % 88 % 1010,6 hPa 0,0 l/m 0,0 km/h (0 Bft) N 360 5 min 16,5 C 27,6 C 0,0 km/h (0 Bft)
05.07.2021 17:58 24,0 C 18,9 C 22,1 C 28,8 C 28,8 C 4,8 C 63 % 88 % 1010,6 hPa 0,0 l/m 0,2 km/h (0 Bft) S-SW 202 5 min 16,5 C 28,8 C 0,0 km/h (0 Bft)
05.07.2021 18:03 24,2 C 18,9 C 22,1 C 29,3 C 29,3 C 5,1 C 61 % 88 % 1010,6 hPa 0,0 l/m 1,1 km/h (1 Bft) S 180 5 min 16,2 C 29,3 C 4,8 km/h (1 Bft)
05.07.2021 18:08 24,2 C 18,9 C 22,2 C 28,3 C 28,3 C 4,1 C 61 % 88 % 1010,6 hPa 0,0 l/m 1,4 km/h (1 Bft) SO 135 5 min 16,2 C 28,3 C 2,4 km/h (1 Bft)
05.07.2021 18:13 24,0 C 18,9 C 21,8 C 26,7 C 26,7 C 2,7 C 60 % 87 % 1010,8 hPa 0,0 l/m 1,0 km/h (0 Bft) S 180 0 min 15,7 C 26,7 C 1,8 km/h (1 Bft)
05.07.2021 18:18 23,9 C 18,9 C 21,6 C 25,8 C 25,8 C 1,9 C 60 % 87 % 1010,8 hPa 0,0 l/m 0,6 km/h (0 Bft) SO 135 0 min 15,7 C 25,8 C 0,0 km/h (0 Bft)
05.07.2021 18:23 23,8 C 18,9 C 21,4 C 24,8 C 24,8 C 1,0 C 61 % 87 % 1010,8 hPa 0,0 l/m 0,2 km/h (0 Bft) S-SW 202 0 min 15,8 C 24,8 C 0,0 km/h (0 Bft)
05.07.2021 18:28 23,7 C 18,9 C 21,4 C 24,3 C 24,3 C 0,6 C 61 % 87 % 1010,8 hPa 0,0 l/m 0,3 km/h (0 Bft) S-SW 202 0 min 15,7 C 24,3 C 1,9 km/h (1 Bft)
05.07.2021 18:33 23,5 C 18,9 C 21,3 C 23,6 C 23,6 C 0,1 C 61 % 87 % 1010,9 hPa 0,0 l/m 0,2 km/h (0 Bft) S 180 0 min 15,5 C 23,6 C 0,0 km/h (0 Bft)
05.07.2021 18:38 23,3 C 18,9 C 21,2 C 23,3 C 23,3 C 0,0 C 61 % 87 % 1010,9 hPa 0,0 l/m 0,2 km/h (0 Bft) SO 135 0 min 15,3 C 23,3 C 0,0 km/h (0 Bft)
05.07.2021 18:43 23,1 C 18,9 C 21,1 C 23,0 C 22,9 C 0,0 C 62 % 86 % 1010,9 hPa 0,0 l/m 0,2 km/h (0 Bft) S-SO 157 0 min 15,4 C 22,9 C 0,0 km/h (0 Bft)
05.07.2021 18:48 23,0 C 18,9 C 21,1 C 22,9 C 22,8 C 0,0 C 62 % 85 % 1010,9 hPa 0,0 l/m 0,2 km/h (0 Bft) S 180 0 min 15,3 C 22,8 C 0,0 km/h (0 Bft)
05.07.2021 18:53 22,9 C 18,9 C 21,0 C 22,8 C 22,7 C 0,0 C 62 % 85 % 1011,1 hPa 0,0 l/m 0,2 km/h (0 Bft) SW 225 0 min 15,2 C 22,7 C 0,0 km/h (0 Bft)
05.07.2021 18:58 22,9 C 18,9 C 20,9 C 22,8 C 22,5 C 0,0 C 62 % 84 % 1011,1 hPa 0,0 l/m 0,2 km/h (0 Bft) S 180 0 min 15,2 C 22,5 C 0,0 km/h (0 Bft)
05.07.2021 19:03 22,7 C 18,9 C 20,9 C 22,6 C 22,5 C 0,0 C 63 % 84 % 1011,1 hPa 0,0 l/m 0,0 km/h (0 Bft) SW 225 0 min 15,3 C 22,5 C 0,0 km/h (0 Bft)
05.07.2021 19:08 22,7 C 18,9 C 20,8 C 22,6 C 22,4 C 0,0 C 63 % 84 % 1011,1 hPa 0,0 l/m 0,0 km/h (0 Bft) SW 225 0 min 15,3 C 22,4 C 0,0 km/h (0 Bft)
05.07.2021 19:13 22,6 C 18,9 C 20,7 C 22,5 C 22,2 C 0,0 C 63 % 83 % 1011,3 hPa 0,0 l/m 0,0 km/h (0 Bft) O 90 0 min 15,2 C 22,2 C 0,0 km/h (0 Bft)
05.07.2021 19:18 22,5 C 18,9 C 20,6 C 22,4 C 22,2 C 0,0 C 64 % 83 % 1011,3 hPa 0,0 l/m 0,0 km/h (0 Bft) S 180 0 min 15,3 C 22,2 C 0,0 km/h (0 Bft)
05.07.2021 19:23 22,4 C 18,9 C 20,5 C 22,3 C 22,0 C 0,0 C 63 % 83 % 1011,3 hPa 0,0 l/m 0,0 km/h (0 Bft) W 270 0 min 15,0 C 22,0 C 0,0 km/h (0 Bft)
05.07.2021 19:28 22,3 C 18,9 C 20,6 C 22,1 C 21,8 C 0,0 C 64 % 82 % 1011,3 hPa 0,0 l/m 0,0 km/h (0 Bft) S 180 0 min 15,2 C 21,8 C 0,0 km/h (0 Bft)
05.07.2021 19:33 22,2 C 18,9 C 20,5 C 22,0 C 21,7 C 0,0 C 64 % 82 % 1011,3 hPa 0,0 l/m 0,0 km/h (0 Bft) NO 45 0 min 15,1 C 21,7 C 0,0 km/h (0 Bft)
05.07.2021 19:38 22,1 C 19,0 C 20,5 C 21,9 C 21,6 C 0,0 C 65 % 82 % 1011,3 hPa 0,0 l/m 0,0 km/h (0 Bft) NO 45 0 min 15,2 C 21,6 C 0,0 km/h (0 Bft)
05.07.2021 19:43 22,1 C 19,0 C 20,4 C 21,9 C 21,5 C 0,0 C 65 % 82 % 1011,3 hPa 0,0 l/m 0,0 km/h (0 Bft) NO 45 0 min 15,2 C 21,5 C 0,0 km/h (0 Bft)
05.07.2021 19:48 21,9 C 19,0 C 20,3 C 21,7 C 21,4 C 0,0 C 65 % 82 % 1011,3 hPa 0,0 l/m 0,0 km/h (0 Bft) NO 45 0 min 15,0 C 21,4 C 0,0 km/h (0 Bft)
05.07.2021 19:53 21,9 C 19,0 C 20,3 C 21,7 C 21,3 C 0,0 C 65 % 81 % 1011,4 hPa 0,0 l/m 0,0 km/h (0 Bft) NO 45 0 min 15,0 C 21,3 C 0,0 km/h (0 Bft)
05.07.2021 19:58 21,8 C 19,0 C 20,3 C 21,6 C 21,2 C 0,0 C 66 % 82 % 1011,4 hPa 0,0 l/m 0,0 km/h (0 Bft) NO 45 0 min 15,2 C 21,2 C 0,0 km/h (0 Bft)
05.07.2021 20:03 21,6 C 19,0 C 20,2 C 21,4 C 21,1 C 0,0 C 66 % 82 % 1011,4 hPa 0,0 l/m 0,0 km/h (0 Bft) NO 45 0 min 15,0 C 21,1 C 0,0 km/h (0 Bft)
05.07.2021 20:08 21,6 C 19,0 C 20,1 C 21,4 C 21,0 C 0,0 C 66 % 81 % 1011,4 hPa 0,0 l/m 0,0 km/h (0 Bft) NO 45 0 min 15,0 C 21,0 C 0,0 km/h (0 Bft)
05.07.2021 20:13 21,5 C 19,1 C 20,1 C 21,3 C 20,8 C 0,0 C 67 % 82 % 1011,3 hPa 0,0 l/m 0,0 km/h (0 Bft) NO 45 0 min 15,1 C 20,8 C 0,0 km/h (0 Bft)
05.07.2021 20:18 21,5 C 19,1 C 20,0 C 21,3 C 20,8 C 0,0 C 67 % 81 % 1011,3 hPa 0,0 l/m 0,0 km/h (0 Bft) NO 45 0 min 15,1 C 20,8 C 0,0 km/h (0 Bft)
05.07.2021 20:23 21,3 C 19,1 C 19,9 C 21,1 C 20,6 C 0,0 C 67 % 81 % 1011,3 hPa 0,0 l/m 0,0 km/h (0 Bft) NO 45 0 min 14,9 C 20,6 C 0,0 km/h (0 Bft)
05.07.2021 20:28 21,2 C 19,1 C 19,8 C 21,0 C 20,6 C 0,0 C 67 % 82 % 1011,3 hPa 0,0 l/m 0,0 km/h (0 Bft) NO 45 0 min 14,8 C 20,6 C 0,0 km/h (0 Bft)
05.07.2021 20:33 21,1 C 19,1 C 19,7 C 20,9 C 20,4 C 0,0 C 67 % 83 % 1011,5 hPa 0,0 l/m 0,0 km/h (0 Bft) NO 45 0 min 14,7 C 20,4 C 0,0 km/h (0 Bft)
05.07.2021 20:38 21,0 C 19,1 C 19,6 C 20,8 C 20,3 C 0,0 C 68 % 83 % 1011,5 hPa 0,0 l/m 0,0 km/h (0 Bft) NO 45 0 min 14,9 C 20,3 C 0,0 km/h (0 Bft)
05.07.2021 20:43 21,0 C 19,1 C 19,6 C 20,7 C 20,2 C 0,0 C 68 % 83 % 1011,5 hPa 0,0 l/m 0,0 km/h (0 Bft) NO 45 0 min 14,9 C 20,2 C 0,0 km/h (0 Bft)
05.07.2021 20:48 20,8 C 19,1 C 19,5 C 20,6 C 20,1 C 0,0 C 69 % 83 % 1011,5 hPa 0,0 l/m 0,0 km/h (0 Bft) NO 45 0 min 14,9 C 20,1 C 0,0 km/h (0 Bft)
05.07.2021 20:53 20,7 C 19,1 C 19,3 C 20,4 C 19,9 C 0,0 C 70 % 84 % 1011,7 hPa 0,0 l/m 0,0 km/h (0 Bft) NO 45 0 min 15,0 C 19,9 C 0,0 km/h (0 Bft)
05.07.2021 20:58 20,7 C 19,1 C 19,3 C 20,4 C 19,7 C 0,0 C 70 % 84 % 1011,7 hPa 0,0 l/m 0,0 km/h (0 Bft) NO 45 0 min 15,0 C 19,7 C 0,0 km/h (0 Bft)
05.07.2021 21:03 20,5 C 19,1 C 19,2 C 20,2 C 19,5 C 0,0 C 70 % 84 % 1011,7 hPa 0,0 l/m 0,0 km/h (0 Bft) NO 45 0 min 14,8 C 19,5 C 0,0 km/h (0 Bft)
05.07.2021 21:08 20,4 C 19,1 C 19,1 C 20,1 C 19,4 C 0,0 C 71 % 84 % 1011,7 hPa 0,0 l/m 0,0 km/h (0 Bft) NO 45 0 min 15,0 C 19,4 C 0,0 km/h (0 Bft)
05.07.2021 21:13 20,3 C 19,1 C 18,9 C 19,9 C 19,1 C 0,0 C 72 % 84 % 1011,9 hPa 0,0 l/m 0,0 km/h (0 Bft) NO 45 0 min 15,1 C 19,1 C 0,0 km/h (0 Bft)
05.07.2021 21:18 20,1 C 19,1 C 18,8 C 19,7 C 19,0 C 0,0 C 72 % 84 % 1011,9 hPa 0,0 l/m 0,0 km/h (0 Bft) NO 45 0 min 14,9 C 19,0 C 0,0 km/h (0 Bft)
05.07.2021 21:23 19,9 C 19,1 C 18,7 C 19,5 C 18,7 C 0,0 C 72 % 84 % 1011,9 hPa 0,0 l/m 0,0 km/h (0 Bft) NO 45 0 min 14,7 C 18,7 C 0,0 km/h (0 Bft)
05.07.2021 21:28 19,9 C 19,2 C 18,6 C 19,5 C 18,6 C 0,0 C 73 % 84 % 1011,9 hPa 0,0 l/m 0,0 km/h (0 Bft) NO 45 0 min 14,9 C 18,6 C 0,0 km/h (0 Bft)
05.07.2021 21:33 19,6 C 19,2 C 18,4 C 19,2 C 18,4 C 0,0 C 74 % 85 % 1012,1 hPa 0,0 l/m 0,0 km/h (0 Bft) NO 45 0 min 14,8 C 18,4 C 0,0 km/h (0 Bft)
05.07.2021 21:38 19,4 C 19,2 C 18,3 C 19,0 C 18,3 C 0,0 C 75 % 85 % 1012,1 hPa 0,0 l/m 0,0 km/h (0 Bft) NO 45 0 min 14,8 C 18,3 C 0,0 km/h (0 Bft)
05.07.2021 21:43 19,3 C 19,2 C 18,1 C 18,9 C 18,0 C 0,0 C 76 % 86 % 1012,1 hPa 0,0 l/m 0,0 km/h (0 Bft) NO 45 0 min 15,0 C 18,0 C 0,0 km/h (0 Bft)
05.07.2021 21:48 19,2 C 19,2 C 18,1 C 18,8 C 17,9 C 0,0 C 76 % 86 % 1012,1 hPa 0,0 l/m 0,0 km/h (0 Bft) NO 45 0 min 14,9 C 17,9 C 0,0 km/h (0 Bft)
05.07.2021 21:53 19,1 C 19,2 C 18,0 C 18,6 C 17,7 C 0,0 C 76 % 86 % 1012,2 hPa 0,0 l/m 0,0 km/h (0 Bft) NO 45 0 min 14,8 C 17,7 C 0,0 km/h (0 Bft)
05.07.2021 22:58 19,1 C 19,2 C 18,0 C 18,6 C 17,7 C 0,0 C 76 % 86 % 1012,2 hPa 0,0 l/m 0,0 km/h (0 Bft) NO 45 0 min 14,8 C 17,7 C 0,0 km/h (0 Bft)
05.07.2021 23:08 18,8 C 19,2 C 17,9 C 18,4 C 17,6 C 0,0 C 77 % 87 % 1012,2 hPa 0,0 l/m 0,0 km/h (0 Bft) NO 45 0 min 14,7 C 17,6 C 0,0 km/h (0 Bft)
05.07.2021 23:09 18,6 C 19,3 C 17,7 C 18,2 C 17,5 C 0,0 C 78 % 87 % 1012,2 hPa 0,0 l/m 0,0 km/h (0 Bft) NO 45 0 min 14,7 C 17,5 C 0,0 km/h (0 Bft)
05.07.2021 23:10 18,6 C 19,3 C 17,7 C 18,2 C 17,5 C 0,0 C 78 % 87 % 1012,2 hPa 0,0 l/m 0,0 km/h (0 Bft) NO 45 0 min 14,7 C 17,5 C 0,0 km/h (0 Bft)
05.07.2021 23:11 18,6 C 19,3 C 17,7 C 18,2 C 17,5 C 0,0 C 78 % 87 % 1012,2 hPa 0,0 l/m 0,0 km/h (0 Bft) NO 45 0 min 14,7 C 17,5 C 0,0 km/h (0 Bft)
05.07.2021 23:12 18,6 C 19,3 C 17,7 C 18,2 C 17,5 C 0,0 C 78 % 87 % 1012,2 hPa 0,0 l/m 0,0 km/h (0 Bft) NO 45 0 min 14,7 C 17,5 C 0,0 km/h (0 Bft)
05.07.2021 23:13 17,5 C 19,4 C 17,0 C 17,3 C 16,8 C 0,0 C 82 % 89 % 1012,3 hPa 0,0 l/m 0,0 km/h (0 Bft) NO 45 0 min 14,4 C 16,8 C 0,0 km/h (0 Bft)
05.07.2021 23:18 17,5 C 19,3 C 17,0 C 17,3 C 16,9 C 0,0 C 83 % 89 % 1012,3 hPa 0,0 l/m 0,0 km/h (0 Bft) NO 45 0 min 14,6 C 16,9 C 0,0 km/h (0 Bft)
05.07.2021 23:23 17,4 C 19,3 C 17,0 C 17,2 C 16,8 C 0,0 C 83 % 89 % 1012,3 hPa 0,0 l/m 0,0 km/h (0 Bft) NO 45 0 min 14,5 C 16,8 C 0,0 km/h (0 Bft)
05.07.2021 23:28 17,4 C 19,4 C 16,9 C 17,2 C 16,8 C 0,0 C 83 % 89 % 1012,3 hPa 0,0 l/m 0,0 km/h (0 Bft) NO 45 0 min 14,5 C 16,8 C 0,0 km/h (0 Bft)
05.07.2021 23:33 17,4 C 19,4 C 16,9 C 17,2 C 16,7 C 0,0 C 83 % 89 % 1012,1 hPa 0,0 l/m 0,0 km/h (0 Bft) NO 45 0 min 14,5 C 16,7 C 0,0 km/h (0 Bft)
05.07.2021 23:38 17,3 C 19,3 C 16,8 C 17,1 C 16,6 C 0,0 C 83 % 89 % 1012,1 hPa 0,0 l/m 0,0 km/h (0 Bft) NO 45 0 min 14,4 C 16,6 C 0,0 km/h (0 Bft)
05.07.2021 23:43 17,2 C 19,4 C 16,7 C 16,9 C 16,4 C 0,0 C 83 % 89 % 1012,1 hPa 0,0 l/m 0,0 km/h (0 Bft) NO 45 0 min 14,3 C 16,4 C 0,0 km/h (0 Bft)
05.07.2021 23:48 17,2 C 19,4 C 16,6 C 16,9 C 16,3 C 0,0 C 83 % 89 % 1012,1 hPa 0,0 l/m 0,0 km/h (0 Bft) NO 45 0 min 14,3 C 16,3 C 0,0 km/h (0 Bft)
05.07.2021 23:53 17,1 C 19,4 C 16,5 C 16,8 C 16,1 C 0,0 C 83 % 89 % 1011,6 hPa 0,0 l/m 0,0 km/h (0 Bft) NO 45 0 min 14,2 C 16,1 C 0,0 km/h (0 Bft)
05.07.2021 23:58 17,0 C 19,4 C 16,5 C 16,7 C 16,0 C 0,0 C 84 % 89 % 1011,6 hPa 0,0 l/m 0,0 km/h (0 Bft) NO 45 0 min 14,3 C 16,0 C 0,0 km/h (0 Bft)
_ Min-Zeit 05:48 10:33 04:48 05:13 05:13 00:00 16:58 13:13 00:28 - 00:00 - - - 05:48 05:13 00:00
Minimum _ 16,1 C 18,4 C 16,1 C 16,1 C 15,7 C 0,0 C 60 % 66 % 1009,8 hPa - 0,0 km/h (0 Bft) - - - 13,9 C 15,7 C 0,0 km/h (0 Bft)
_ Max-Zeit 13:18 23:13 13:18 16:53 16:53 09:43 04:48 05:33 23:13 14:03 15:38 - - 08:08 15:08 16:53 11:48
Maximum _ 24,5 C 19,4 C 23,2 C 31,0 C 31,0 C 8,9 C 87 % 91 % 1012,3 hPa 2,1 l/m 3,4 km/h
W (1 Bft)
- - 5 min 17,7 C 31,0 C 5,3 km/h
SW (1 Bft)
Durchschnitt _ 19,9 C 18,9 C 18,9 C 21,7 C 21,5 C 1,9 C 76 % 85 % 1011,0 hPa #2,1 l/m 0,7 km/h (0 Bft) SW - #7:00 h 15,3 C 21,5 C 1,0 km/h (0 Bft)
2021 www.wetterstation-wechselburg.de